Weather Roundup
Issued by NWS Chicago, IL

Home | Current Version | Previous Version | Text Only | Print | Product List | Glossary On
Versions: 1 2 3 4 5 6 7 8 9 10 11 12 13 14 15 16 17 18 19 20 21 22 23 24 25 26 27 28 29 30 31 32 33 34 35 36 37 38 39 40 41 42 43 44 45 46 47 48 49 50
000
NZUS59 KLOT 201210
HRRLOT

CHICAGO AREA WEATHER ROUNDUP
NATIONAL WEATHER SERVICE CHICAGO/ROMEOVILLE IL
700 AM CDT WED AUG 20 2014

NOTE: "FAIR" INDICATES FEW OR NO CLOUDS BELOW 12,000 FEET WITH NO
SIGNIFICANT WEATHER AND/OR OBSTRUCTIONS TO VISIBILITY.

* THESE STATIONS ARE NOT UNDER NWS QUALITY CONTROL. THEY ALSO MAY NOT
  REPORT WEATHER SUCH AS PRECIPITATION OR FOG.

ILZ005-006-012>014-019>023-201300-
NORTHEAST ILLINOIS

CITY           SKY/WX    TMP DP  RH WIND       PRES   REMARKS
OHARE          PTCLDY    68  61  78 W6        29.84R
6HR MIN TEMP:  66; 6HR MAX TEMP:  70;

MIDWAY         PTCLDY    69  64  84 W5        29.84R
6HR MIN TEMP:  68; 6HR MAX TEMP:  74;

AURORA         CLEAR     61  58  90 CALM      29.85R FOG
6HR MIN TEMP:  59; 6HR MAX TEMP:  65;

LANSING*       CLEAR     64  63  97 SW3       29.86R FOG
JOLIET*        CLEAR     62  61  94 CALM      29.86S
WAUKEGAN       CLEAR     64  63  96 CALM      29.83R
6HR MIN TEMP:  61; 6HR MAX TEMP:  68;

DUPAGE AIRPORT PTCLDY    65  61  87 CALM      29.85R
6HR MIN TEMP:  62; 6HR MAX TEMP:  67;

WHEELING       CLEAR     68  63  84 SW3       29.86R
6HR MIN TEMP:  67; 6HR MAX TEMP:  70;

KANKAKEE*      CLEAR     62  61  99 CALM      29.87R FOG
MORRIS*        CLEAR     64  64 100 SW3       29.85S FOG
LEWIS AIRPORT* CLEAR     64  64 100 CALM      29.85S
NORTHERLY IS     N/A     71  62  73 W6          N/A
$$

WIZ051-052-058>065-066-070>072-201300-
SOUTHEAST WISCONSIN

CITY           SKY/WX    TMP DP  RH WIND       PRES   REMARKS
MILWAUKEE      CLEAR     67  62  84 W5        29.83R
6HR MIN TEMP:  66; 6HR MAX TEMP:  69;

KENOSHA*       CLEAR     63  62  97 SW5       29.84R
RACINE*        CLEAR     66  62  87 CALM      29.84R
BURLINGTON     CLEAR     60  60 100 SW5       29.84R FOG
WAUKESHA       CLEAR     61  59  94 NW5       29.84R
WEST BEND      CLEAR     61  59  94 CALM      29.82S
$$

INZ001>003-010>013-019-020-201300-
NORTHWEST INDIANA

CITY           SKY/WX    TMP DP  RH WIND       PRES   REMARKS
GARY*          PTCLDY    68  66  94 MISG      29.85R
MICHIGAN CITY* NOT AVBL
RENSSELAER*    NOT AVBL
VALPARAISO     CLEAR     65  63  93 CALM      29.85S
$$

LMZ740>746-201300-
SOUTHERN LAKE MICHIGAN

STATION/POSITION TIME  SKY/WX   TEMP WIND        PRES    VSBY
                                AIR  DIR/SP/G
                 (UTC)          (F)  (DEG/KT/KT) (MB)    (MI)
HARRISON CRIB    1200            70  280/ 10/ 11   N/A
BURNHAM HARBOR   1200            71  240/  5/  8   N/A
CALUMET HARBOR   1200            69  220/  2/  4 1009.4R
BURNS HARBOR     1100            71  230/  4/  5   N/A
MICHIGAN CITY    1200            69  190/  5/  6   N/A
$$

ABBREVIATIONS USED IN REMARKS
   TC - TEMPERATURE IN CELSIUS
  WCI - WIND CHILL INDEX
   HX - HEAT INDEX
  VSB - VISIBILITY
$$


USA.gov is the U.S. government's official web portal to all federal, state and local government web resources and services.